Location: Ch�risy
(50.2331°N, 2.9131°E)
Time: 02:02:22
(UTC+00:00)

PSLV R/B - Pass Details

Date: 17 January 2021
Orbit: 504 x 577 km, 97.8° (Epoch: 28 February)

Event Time Altitude Azimuth Distance (km) Brightness Sun altitude
Rises 16:47:33 0° 170° (S) 2,593 7.5 -5.0°
Reaches altitude 10° 16:49:37 10° 172° (S) 1,713 6.6 -5.3°
Maximum altitude 16:53:17 71° 257° (WSW) 542 4.0 -5.9°
Drops below altitude 10° 16:57:02 10° 342° (NNW) 1,743 6.3 -6.4°
Sets 16:59:09 0° 345° (NNW) 2,642 7.2 -6.7°
